Location: Possagno
(45.8500°N, 11.8667°E)
Time: 09:58:05
(UTC+00:00)

STARLINK-2717 - Pass Details

Date: 30 July 2021
Orbit: 546 x 548 km, 53.1° (Epoch: 22 September)

Event Time Altitude Azimuth Distance (km) Brightness Sun altitude
Rises 20:30:27 0° 292° (WNW) 2,717 8.4 -15.4°
Reaches altitude 10° 20:33:10 10° 275° (W) 1,819 6.9 -15.7°
Maximum altitude 20:36:08 19° 229° (SW) 1,322 5.5 -16.0°
Enters shadow 20:37:56 15° 197° (SSW) 1,520 5.5 -16.2°
